User: anonymous   Login
Location: Downe
(51.3167°N, 0.0500°E)
Time: 13:51:59
(UTC+00:00)
Language:

COSMOS 2428 - Orbit

View from above orbital plane
View from above orbital plane
View from above satellite
View from above satellite

Ground track
Ground track

The orbit data is extracted from the following two-line orbital elements,

1 31792U 07029A   20025.08516953 -.00000217  00000-0 -91480-4 0  9994
2 31792  70.9243 216.0605 0010194 289.6388  70.3633 14.12396077648480
Epoch (UTC): 25 January 2020 02:02:38
Eccentricity: 0.0010194
inclination: 70.9243°
perigee height: 844 km
apogee height: 858 km
right ascension of ascending node: 216.0605°
argument of perigee: 289.6388°
revolutions per day: 14.12396077
mean anomaly at epoch: 70.3633°
orbit number at epoch: 64848

The dashed part of the orbit path shows where the satellite is in the earth's shadow,  

DLR